Dewpoint
57 56 55 54 53 53 52 50 50 51 51 51 50 50 49 50 50 50 50 50 50 50 49 49 48 47 45 45 44 41 41 42 40 40 40 40 40 40 40 41 42 39
57 56 54 53 52 51 51 51 51 51 51 51 50 49 49 49 50 50 50 49 48 48 48 48 47 45 43 42 43 41 40 41 40 40 40 39 39 39 40 41 41 41
56 55 54 53 51 51 51 51 51 51 50 49 50 49 49 49 49 49 49 48 48 48 48 47 46 45 43 43 42 41 41 40 40 40 39 39 39 39 39 39 39 40
56 54 53 52 51 50 50 50 50 50 49 48 48 48 48 49 49 49 48 48 48 48 48 47 46 43 42 42 42 41 41 39 39 40 39 39 39 38 38 38 38 37
54 52 51 50 50 49 50 49 49 49 48 48 48 48 48 48 48 47 47 47 47 47 47 46 45 44 43 43 41 41 41 39 40 39 38 38 39 39 38 37 36 36
52 50 49 49 49 49 49 48 47 47 47 48 48 47 47 47 46 46 46 46 46 46 46 45 44 44 43 43 42 41 40 38 40 39 36 36 37 37 38 37 35 34
52 50 50 49 48 49 49 48 48 47 46 46 45 46 46 46 46 45 45 45 45 44 44 44 43 44 43 42 41 40 39 39 39 37 36 36 36 37 36 36 33 31
51 50 49 48 49 49 49 47 46 46 46 45 46 45 44 44 45 46 46 45 44 44 44 42 42 42 42 41 39 39 40 41 40 37 36 36 36 34 35 37 35 31
50 49 49 50 50 49 48 45 45 45 44 46 45 45 45 45 45 45 44 44 44 44 43 42 41 41 43 41 39 38 36 39 39 37 37 37 36 34 32 34 33 33
50 50 50 50 49 48 47 46 45 44 44 45 44 44 44 45 45 44 44 44 44 43 43 42 42 43 41 39 38 37 36 36 36 37 37 36 35 33 33 33 33 32
51 50 50 50 49 47 47 45 45 44 44 43 44 44 43 44 44 43 43 43 45 43 42 42 41 41 40 40 41 40 37 37 36 35 37 36 36 35 35 34 33 33
51 50 50 49 48 47 46 44 44 44 44 43 42 42 44 43 43 43 43 42 42 42 42 41 41 41 39 39 39 40 40 39 38 37 37 36 37 37 35 36 35 33
50 50 49 48 47 46 45 43 43 44 42 41 42 42 43 43 43 43 43 42 41 43 42 42 42 41 41 41 40 40 39 38 40 39 39 40 39 37 36 36 35 35
49 49 48 47 45 44 44 43 42 42 41 42 41 42 42 42 42 42 43 42 43 42 42 43 43 42 42 41 40 40 40 39 39 40 38 40 41 38 38 36 36 36
48 47 46 45 43 43 44 42 41 41 41 40 41 42 43 42 42 42 41 41 41 42 42 43 43 43 43 43 41 39 40 39 39 38 39 38 38 38 39 37 36 36
46 46 44 43 42 42 41 42 42 41 40 39 39 40 40 41 41 41 41 41 41 41 42 44 44 45 44 43 43 39 40 40 40 40 38 38 38 38 38 37 36 36
45 44 43 42 41 41 41 42 40 40 39 38 39 39 40 40 40 40 40 40 40 41 42 44 44 44 41 39 39 41 41 41 39 39 39 38 37 37 36 37 37 35
44 43 42 41 41 39 39 41 39 38 37 38 38 39 40 40 40 39 40 41 42 41 43 43 44 43 39 39 39 39 42 41 41 40 40 38 37 36 36 36 37 38
43 42 41 41 40 39 40 39 40 39 39 39 39 39 39 39 39 39 40 41 41 40 41 43 43 39 38 38 38 38 38 40 37 39 38 37 38 37 36 37 37 37
43 42 41 40 40 40 39 37 39 38 39 40 38 38 38 38 39 40 40 40 41 41 41 42 42 39 37 38 37 37 37 38 37 40 40 39 39 39 41 39 38 36
43 42 42 41 41 39 39 38 40 39 39 37 37 36 37 37 38 39 39 40 41 41 40 41 41 37 37 36 36 36 36 38 41 41 40 41 42 42 41 39 38 38
43 42 42 41 40 39 38 39 38 38 37 37 36 36 37 37 38 38 39 40 40 40 39 38 38 36 36 36 36 36 37 38 39 39 39 39 39 40 38 38 37 36
43 42 42 41 40 39 37 38 37 36 37 36 35 35 35 35 37 38 38 38 39 39 39 38 37 37 36 36 36 36 36 35 38 35 37 38 38 38 36 37 37 38
45 43 42 41 40 37 36 36 36 36 36 36 34 34 34 35 36 36 37 38 38 39 38 38 37 37 36 36 35 35 37 35 34 36 37 36 36 37 35 34 37 39
45 44 43 42 40 38 36 35 34 34 35 35 35 34 35 35 34 34 36 37 37 38 39 37 36 37 36 36 36 36 37 37 34 33 35 35 33 32 34 33 36 36
46 45 44 42 39 38 35 34 34 34 35 34 34 32 32 33 33 34 35 34 36 38 37 37 35 35 37 36 36 36 36 35 34 33 33 33 32 30 30 32 34 36